QPF
0.01 0.01 0.00 0.00 0.01 0.01 0.02 0.01 0.01 0.00 0.00 0.00 0.00 0.00 0.00 0.00 0.00 0.00 0.00 0.00 0.00 0.00 0.00 0.00 0.00 0.00 0.00 0.00 0.00 0.00 0.00 0.00 0.00 0.00 0.00 0.00 0.00 0.00 0.00 0.00 0.00 0.00 0.00 0.00
0.01 0.01 0.00 0.01 0.01 0.01 0.01 0.01 0.00 0.00 0.00 0.00 0.00 0.00 0.00 0.00 0.00 0.00 0.00 0.00 0.00 0.00 0.00 0.00 0.00 0.00 0.00 0.00 0.00 0.00 0.00 0.00 0.00 0.00 0.00 0.00 0.00 0.00 0.00 0.00 0.00 0.00 0.00 0.00
0.02 0.01 0.01 0.01 0.01 0.00 0.01 0.00 0.00 0.00 0.01 0.00 0.00 0.00 0.00 0.00 0.00 0.00 0.00 0.00 0.00 0.00 0.00 0.00 0.00 0.00 0.00 0.00 0.00 0.00 0.00 0.00 0.00 0.00 0.00 0.00 0.00 0.00 0.00 0.00 0.00 0.00 0.00 0.00
0.02 0.01 0.02 0.01 0.00 0.00 0.00 0.01 0.01 0.01 0.00 0.00 0.00 0.00 0.00 0.00 0.00 0.00 0.00 0.00 0.00 0.00 0.00 0.00 0.00 0.00 0.00 0.00 0.00 0.00 0.00 0.00 0.00 0.00 0.00 0.00 0.00 0.00 0.00 0.00 0.00 0.00 0.00 0.00
0.02 0.01 0.00 0.00 0.00 0.00 0.01 0.01 0.01 0.01 0.00 0.00 0.00 0.00 0.00 0.00 0.00 0.00 0.00 0.00 0.00 0.00 0.00 0.00 0.00 0.00 0.00 0.00 0.00 0.00 0.00 0.00 0.00 0.00 0.00 0.00 0.00 0.00 0.00 0.00 0.00 0.00 0.00 0.00
0.03 0.02 0.01 0.00 0.00 0.00 0.00 0.01 0.00 0.00 0.00 0.00 0.00 0.01 0.00 0.00 0.00 0.00 0.00 0.00 0.00 0.00 0.00 0.00 0.00 0.00 0.00 0.00 0.00 0.00 0.00 0.00 0.00 0.00 0.00 0.00 0.00 0.00 0.00 0.00 0.00 0.00 0.00 0.00
0.03 0.02 0.01 0.00 0.00 0.00 0.00 0.00 0.00 0.00 0.00 0.00 0.00 0.00 0.00 0.00 0.00 0.00 0.00 0.00 0.00 0.00 0.00 0.00 0.00 0.00 0.00 0.00 0.00 0.00 0.00 0.00 0.00 0.00 0.00 0.00 0.00 0.00 0.00 0.00 0.00 0.00 0.00 0.00
0.02 0.02 0.01 0.00 0.01 0.01 0.01 0.00 0.00 0.00 0.00 0.00 0.00 0.00 0.00 0.00 0.00 0.00 0.00 0.00 0.00 0.00 0.00 0.00 0.00 0.00 0.00 0.00 0.00 0.00 0.00 0.00 0.00 0.00 0.00 0.00 0.00 0.00 0.00 0.00 0.00 0.00 0.00 0.00
0.02 0.01 0.01 0.00 0.01 0.01 0.00 0.00 0.00 0.00 0.00 0.00 0.00 0.00 0.01 0.01 0.00 0.00 0.00 0.00 0.00 0.00 0.00 0.00 0.00 0.00 0.00 0.00 0.00 0.00 0.00 0.00 0.00 0.00 0.00 0.00 0.00 0.00 0.00 0.00 0.00 0.00 0.00 0.00
0.03 0.01 0.01 0.01 0.01 0.01 0.00 0.00 0.00 0.00 0.00 0.00 0.00 0.01 0.01 0.01 0.01 0.01 0.00 0.00 0.00 0.00 0.00 0.00 0.00 0.00 0.00 0.00 0.00 0.00 0.00 0.00 0.00 0.00 0.00 0.00 0.00 0.00 0.00 0.00 0.00 0.00 0.00 0.00
0.03 0.01 0.01 0.01 0.01 0.01 0.01 0.01 0.01 0.00 0.00 0.00 0.00 0.00 0.01 0.01 0.01 0.01 0.00 0.00 0.00 0.00 0.00 0.00 0.00 0.00 0.00 0.00 0.00 0.00 0.00 0.00 0.00 0.00 0.00 0.00 0.00 0.00 0.00 0.00 0.00 0.00 0.00 0.00
0.02 0.02 0.02 0.02 0.02 0.02 0.01 0.01 0.01 0.00 0.01 0.00 0.00 0.00 0.00 0.00 0.01 0.00 0.00 0.00 0.00 0.00 0.01 0.01 0.01 0.00 0.00 0.00 0.00 0.00 0.00 0.00 0.00 0.00 0.00 0.00 0.00 0.00 0.01 0.00 0.00 0.00 0.00 0.00
0.01 0.01 0.01 0.01 0.01 0.01 0.01 0.00 0.00 0.00 0.00 0.00 0.00 0.00 0.01 0.01 0.00 0.00 0.00 0.00 0.00 0.01 0.01 0.01 0.01 0.01 0.01 0.00 0.01 0.01 0.00 0.00 0.00 0.00 0.00 0.00 0.01 0.01 0.00 0.00 0.00 0.00 0.00 0.00
0.01 0.01 0.01 0.01 0.01 0.01 0.01 0.00 0.00 0.00 0.00 0.00 0.00 0.00 0.00 0.01 0.01 0.00 0.00 0.00 0.00 0.00 0.00 0.01 0.00 0.00 0.00 0.00 0.01 0.01 0.01 0.01 0.01 0.00 0.00 0.01 0.01 0.01 0.01 0.00 0.00 0.00 0.00 0.00
0.01 0.01 0.01 0.00 0.00 0.00 0.00 0.00 0.00 0.00 0.00 0.00 0.00 0.00 0.00 0.00 0.00 0.00 0.00 0.00 0.00 0.00 0.00 0.00 0.00 0.00 0.00 0.00 0.00 0.01 0.01 0.01 0.01 0.01 0.01 0.01 0.01 0.01 0.01 0.00 0.00 0.00 0.00 0.00
0.00 0.00 0.00 0.00 0.00 0.00 0.00 0.00 0.00 0.00 0.00 0.00 0.00 0.00 0.00 0.00 0.00 0.00 0.00 0.00 0.00 0.00 0.00 0.00 0.00 0.00 0.00 0.00 0.00 0.01 0.01 0.02 0.02 0.01 0.01 0.01 0.01 0.01 0.01 0.00 0.00 0.00 0.00 0.00
0.01 0.00 0.00 0.01 0.00 0.01 0.00 0.00 0.00 0.00 0.00 0.00 0.00 0.00 0.00 0.00 0.00 0.00 0.00 0.01 0.01 0.00 0.00 0.00 0.00 0.00 0.00 0.00 0.01 0.01 0.01 0.02 0.03 0.02 0.02 0.01 0.01 0.01 0.01 0.01 0.01 0.00 0.00 0.00
0.00 0.00 0.01 0.01 0.01 0.00 0.00 0.00 0.00 0.00 0.00 0.00 0.00 0.00 0.01 0.01 0.01 0.00 0.00 0.00 0.01 0.01 0.01 0.01 0.01 0.01 0.01 0.01 0.01 0.01 0.02 0.02 0.02 0.02 0.02 0.02 0.02 0.02 0.02 0.01 0.01 0.01 0.00 0.01
0.01 0.01 0.01 0.01 0.01 0.01 0.00 0.00 0.00 0.00 0.00 0.00 0.00 0.00 0.00 0.00 0.00 0.00 0.00 0.01 0.01 0.01 0.01 0.01 0.01 0.01 0.01 0.01 0.02 0.02 0.02 0.02 0.03 0.03 0.03 0.03 0.03 0.03 0.02 0.02 0.02 0.01 0.01 0.01
0.02 0.01 0.01 0.01 0.01 0.01 0.01 0.01 0.01 0.00 0.00 0.00 0.00 0.00 0.00 0.00 0.00 0.00 0.00 0.01 0.01 0.01 0.01 0.01 0.01 0.01 0.01 0.02 0.03 0.02 0.02 0.02 0.03 0.03 0.04 0.04 0.04 0.03 0.03 0.03 0.02 0.02 0.02 0.02
0.02 0.02 0.01 0.01 0.01 0.01 0.01 0.01 0.01 0.00 0.00 0.00 0.00 0.00 0.00 0.01 0.00 0.00 0.01 0.01 0.01 0.01 0.01 0.02 0.01 0.01 0.02 0.03 0.03 0.02 0.03 0.03 0.04 0.04 0.04 0.04 0.04 0.04 0.03 0.03 0.03 0.03 0.03 0.02
0.03 0.02 0.02 0.01 0.01 0.01 0.01 0.01 0.01 0.00 0.00 0.00 0.00 0.00 0.00 0.00 0.00 0.00 0.01 0.01 0.01 0.02 0.01 0.01 0.01 0.02 0.03 0.03 0.03 0.02 0.03 0.03 0.04 0.04 0.04 0.04 0.04 0.03 0.03 0.03 0.03 0.03 0.03 0.03
0.03 0.03 0.02 0.02 0.02 0.01 0.01 0.01 0.00 0.00 0.00 0.01 0.01 0.01 0.01 0.01 0.01 0.01 0.01 0.01 0.01 0.01 0.01 0.01 0.02 0.03 0.03 0.03 0.02 0.02 0.03 0.03 0.04 0.04 0.04 0.04 0.03 0.03 0.03 0.03 0.03 0.03 0.03 0.03
0.03 0.02 0.02 0.02 0.02 0.01 0.01 0.01 0.00 0.00 0.00 0.00 0.00 0.01 0.01 0.01 0.01 0.01 0.01 0.01 0.01 0.01 0.01 0.02 0.02 0.03 0.03 0.02 0.02 0.03 0.03 0.03 0.03 0.04 0.04 0.04 0.03 0.03 0.03 0.03 0.02 0.02 0.02 0.02
0.03 0.02 0.02 0.01 0.01 0.01 0.01 0.00 0.00 0.00 0.00 0.00 0.00 0.00 0.00 0.01 0.01 0.01 0.01 0.01 0.01 0.01 0.01 0.01 0.02 0.02 0.02 0.02 0.02 0.02 0.03 0.03 0.03 0.03 0.03 0.03 0.03 0.03 0.03 0.03 0.02 0.02 0.02 0.02
0.03 0.02 0.01 0.01 0.01 0.00 0.00 0.00 0.00 0.00 0.00 0.00 0.00 0.01 0.01 0.01 0.01 0.01 0.01 0.01 0.01 0.01 0.01 0.01 0.01 0.01 0.01 0.02 0.02 0.02 0.02 0.02 0.03 0.03 0.03 0.03 0.03 0.03 0.02 0.02 0.02 0.02 0.01 0.01
0.02 0.01 0.01 0.01 0.00 0.00 0.00 0.00 0.00 0.00 0.01 0.01 0.01 0.01 0.01 0.01 0.01 0.01 0.01 0.01 0.01 0.01 0.01 0.01 0.01 0.01 0.01 0.01 0.01 0.01 0.01 0.02 0.02 0.02 0.02 0.02 0.02 0.02 0.02 0.02 0.01 0.01 0.01 0.01
MSLP
1011.62 1011.87 1012.17 1012.48 1012.75 1012.94 1013.02 1012.97 1012.83 1012.61 1012.36 1012.13 1011.97 1011.91 1011.97 1012.16 1012.46 1012.86 1013.31 1013.81 1014.32 1014.83 1015.33 1015.82 1016.30 1016.77 1017.23 1017.67 1018.08 1018.46 1018.78 1019.05 1019.27 1019.44 1019.56 1019.65 1019.72 1019.77 1019.81 1019.83 1019.83 1019.82 1019.80 1019.77
1011.87 1012.06 1012.26 1012.43 1012.55 1012.59 1012.54 1012.42 1012.24 1012.03 1011.83 1011.68 1011.61 1011.63 1011.76 1011.98 1012.29 1012.65 1013.07 1013.51 1013.98 1014.46 1014.95 1015.47 1016.00 1016.54 1017.08 1017.60 1018.09 1018.53 1018.91 1019.21 1019.45 1019.63 1019.75 1019.85 1019.92 1019.99 1020.05 1020.10 1020.14 1020.17 1020.19 1020.21
1012.15 1012.26 1012.35 1012.38 1012.34 1012.22 1012.05 1011.83 1011.59 1011.38 1011.21 1011.12 1011.12 1011.22 1011.41 1011.68 1012.00 1012.37 1012.76 1013.18 1013.63 1014.10 1014.61 1015.15 1015.72 1016.32 1016.92 1017.51 1018.05 1018.54 1018.95 1019.28 1019.54 1019.73 1019.88 1020.00 1020.10 1020.20 1020.31 1020.41 1020.50 1020.59 1020.66 1020.72
1012.35 1012.39 1012.36 1012.26 1012.08 1011.82 1011.52 1011.21 1010.93 1010.70 1010.56 1010.52 1010.59 1010.76 1011.01 1011.33 1011.69 1012.08 1012.48 1012.91 1013.35 1013.83 1014.35 1014.91 1015.52 1016.15 1016.78 1017.40 1017.97 1018.48 1018.90 1019.25 1019.52 1019.74 1019.91 1020.07 1020.23 1020.39 1020.56 1020.73 1020.89 1021.04 1021.16 1021.26
1012.41 1012.37 1012.26 1012.05 1011.75 1011.39 1011.01 1010.64 1010.32 1010.09 1009.98 1009.98 1010.11 1010.35 1010.67 1011.04 1011.45 1011.87 1012.30 1012.74 1013.20 1013.69 1014.22 1014.79 1015.40 1016.03 1016.67 1017.28 1017.84 1018.34 1018.76 1019.11 1019.39 1019.63 1019.85 1020.06 1020.28 1020.52 1020.76 1021.01 1021.25 1021.46 1021.63 1021.76
1012.31 1012.21 1012.02 1011.75 1011.39 1010.98 1010.56 1010.17 1009.86 1009.65 1009.58 1009.64 1009.83 1010.12 1010.49 1010.91 1011.36 1011.82 1012.27 1012.73 1013.20 1013.70 1014.22 1014.78 1015.37 1015.98 1016.58 1017.15 1017.68 1018.14 1018.54 1018.88 1019.17 1019.43 1019.69 1019.95 1020.24 1020.56 1020.88 1021.21 1021.51 1021.78 1021.99 1022.14
1012.07 1011.92 1011.70 1011.40 1011.04 1010.64 1010.25 1009.90 1009.63 1009.48 1009.46 1009.58 1009.82 1010.16 1010.57 1011.02 1011.49 1011.96 1012.42 1012.88 1013.35 1013.83 1014.33 1014.85 1015.40 1015.95 1016.49 1017.00 1017.47 1017.89 1018.25 1018.57 1018.87 1019.15 1019.45 1019.77 1020.12 1020.50 1020.89 1021.28 1021.63 1021.94 1022.18 1022.35
1011.76 1011.57 1011.34 1011.07 1010.76 1010.44 1010.13 1009.88 1009.70 1009.64 1009.69 1009.86 1010.14 1010.50 1010.92 1011.37 1011.83 1012.28 1012.72 1013.15 1013.59 1014.03 1014.48 1014.95 1015.43 1015.91 1016.38 1016.83 1017.23 1017.60 1017.93 1018.23 1018.53 1018.83 1019.16 1019.53 1019.93 1020.35 1020.79 1021.21 1021.59 1021.92 1022.17 1022.35
1011.44 1011.23 1011.03 1010.83 1010.62 1010.43 1010.26 1010.13 1010.08 1010.12 1010.25 1010.46 1010.76 1011.12 1011.51 1011.91 1012.32 1012.72 1013.11 1013.48 1013.85 1014.23 1014.62 1015.02 1015.43 1015.83 1016.23 1016.61 1016.96 1017.28 1017.59 1017.89 1018.19 1018.51 1018.87 1019.27 1019.70 1020.15 1020.60 1021.02 1021.41 1021.73 1021.97 1022.14
1011.17 1010.97 1010.83 1010.72 1010.65 1010.61 1010.61 1010.64 1010.73 1010.87 1011.06 1011.31 1011.60 1011.92 1012.24 1012.57 1012.89 1013.19 1013.49 1013.78 1014.06 1014.36 1014.67 1015.00 1015.34 1015.68 1016.02 1016.34 1016.66 1016.96 1017.26 1017.56 1017.88 1018.23 1018.61 1019.02 1019.46 1019.91 1020.34 1020.75 1021.11 1021.40 1021.62 1021.77
1011.00 1010.82 1010.75 1010.77 1010.85 1010.98 1011.15 1011.34 1011.55 1011.78 1012.03 1012.28 1012.53 1012.78 1013.01 1013.23 1013.43 1013.61 1013.79 1013.97 1014.16 1014.37 1014.60 1014.86 1015.13 1015.43 1015.72 1016.03 1016.33 1016.63 1016.94 1017.26 1017.61 1017.98 1018.37 1018.80 1019.23 1019.66 1020.06 1020.43 1020.74 1020.99 1021.17 1021.29
1010.94 1010.81 1010.83 1010.96 1011.19 1011.48 1011.79 1012.12 1012.44 1012.74 1013.01 1013.24 1013.43 1013.58 1013.70 1013.79 1013.85 1013.90 1013.95 1014.02 1014.11 1014.23 1014.39 1014.59 1014.82 1015.08 1015.35 1015.65 1015.96 1016.28 1016.62 1016.97 1017.35 1017.75 1018.16 1018.58 1019.00 1019.40 1019.77 1020.08 1020.34 1020.53 1020.67 1020.77
1010.98 1010.91 1011.01 1011.26 1011.61 1012.03 1012.46 1012.89 1013.28 1013.61 1013.88 1014.07 1014.19 1014.25 1014.24 1014.20 1014.13 1014.05 1013.99 1013.95 1013.95 1013.99 1014.09 1014.23 1014.43 1014.66 1014.92 1015.22 1015.54 1015.89 1016.26 1016.65 1017.06 1017.48 1017.91 1018.34 1018.74 1019.11 1019.44 1019.71 1019.91 1020.06 1020.16 1020.23
1011.11 1011.10 1011.29 1011.63 1012.08 1012.58 1013.10 1013.58 1014.01 1014.35 1014.59 1014.74 1014.78 1014.74 1014.63 1014.48 1014.30 1014.11 1013.95 1013.82 1013.74 1013.71 1013.75 1013.85 1014.00 1014.20 1014.46 1014.75 1015.08 1015.45 1015.84 1016.26 1016.69 1017.14 1017.58 1018.01 1018.40 1018.75 1019.05 1019.28 1019.45 1019.57 1019.64 1019.69
1011.31 1011.39 1011.64 1012.05 1012.55 1013.11 1013.66 1014.17 1014.60 1014.93 1015.14 1015.23 1015.22 1015.10 1014.92 1014.68 1014.42 1014.16 1013.92 1013.72 1013.57 1013.48 1013.46 1013.50 1013.61 1013.77 1013.99 1014.26 1014.58 1014.94 1015.34 1015.76 1016.21 1016.66 1017.11 1017.54 1017.93 1018.27 1018.55 1018.76 1018.91 1019.01 1019.07 1019.11
1011.61 1011.75 1012.07 1012.51 1013.04 1013.61 1014.16 1014.66 1015.07 1015.37 1015.55 1015.61 1015.55 1015.40 1015.17 1014.89 1014.58 1014.27 1013.99 1013.73 1013.53 1013.38 1013.29 1013.27 1013.30 1013.40 1013.56 1013.78 1014.05 1014.38 1014.75 1015.15 1015.59 1016.03 1016.47 1016.89 1017.28 1017.61 1017.89 1018.10 1018.26 1018.36 1018.42 1018.47
1012.01 1012.22 1012.57 1013.02 1013.55 1014.09 1014.62 1015.08 1015.46 1015.73 1015.89 1015.93 1015.86 1015.69 1015.46 1015.17 1014.86 1014.53 1014.22 1013.92 1013.67 1013.46 1013.30 1013.19 1013.14 1013.15 1013.21 1013.35 1013.54 1013.79 1014.10 1014.46 1014.85 1015.26 1015.68 1016.08 1016.45 1016.78 1017.06 1017.28 1017.44 1017.56 1017.64 1017.70
1012.53 1012.78 1013.15 1013.60 1014.09 1014.59 1015.07 1015.49 1015.83 1016.07 1016.22 1016.26 1016.19 1016.05 1015.83 1015.57 1015.27 1014.95 1014.62 1014.31 1014.00 1013.73 1013.49 1013.28 1013.12 1013.02 1012.97 1012.99 1013.07 1013.23 1013.44 1013.72 1014.04 1014.40 1014.77 1015.14 1015.49 1015.80 1016.07 1016.30 1016.47 1016.61 1016.71 1016.79
1013.18 1013.46 1013.82 1014.23 1014.68 1015.12 1015.54 1015.91 1016.21 1016.43 1016.57 1016.62 1016.58 1016.47 1016.30 1016.07 1015.80 1015.50 1015.17 1014.83 1014.49 1014.15 1013.82 1013.52 1013.25 1013.02 1012.85 1012.74 1012.70 1012.74 1012.84 1013.02 1013.25 1013.53 1013.83 1014.14 1014.45 1014.73 1014.98 1015.20 1015.37 1015.52 1015.63 1015.73
1013.92 1014.21 1014.55 1014.92 1015.30 1015.68 1016.03 1016.35 1016.61 1016.81 1016.94 1017.00 1017.00 1016.93 1016.80 1016.61 1016.38 1016.10 1015.78 1015.42 1015.04 1014.65 1014.24 1013.85 1013.48 1013.14 1012.84 1012.61 1012.45 1012.37 1012.36 1012.42 1012.55 1012.73 1012.94 1013.18 1013.42 1013.64 1013.85 1014.04 1014.20 1014.33 1014.45 1014.56
1014.71 1014.99 1015.29 1015.61 1015.93 1016.24 1016.53 1016.79 1017.01 1017.18 1017.31 1017.39 1017.40 1017.37 1017.27 1017.12 1016.91 1016.65 1016.33 1015.97 1015.56 1015.13 1014.67 1014.21 1013.75 1013.33 1012.94 1012.61 1012.35 1012.16 1012.04 1011.99 1012.01 1012.08 1012.20 1012.33 1012.48 1012.63 1012.78 1012.91 1013.03 1013.13 1013.24 1013.34
1015.48 1015.73 1015.99 1016.26 1016.51 1016.76 1017.00 1017.21 1017.39 1017.54 1017.65 1017.72 1017.75 1017.72 1017.65 1017.52 1017.33 1017.08 1016.77 1016.40 1015.98 1015.52 1015.04 1014.54 1014.04 1013.56 1013.11 1012.72 1012.38 1012.11 1011.90 1011.76 1011.67 1011.63 1011.64 1011.67 1011.71 1011.76 1011.82 1011.87 1011.93 1011.99 1012.06 1012.14
1016.14 1016.37 1016.59 1016.81 1017.03 1017.23 1017.41 1017.58 1017.72 1017.84 1017.92 1017.98 1018.00 1017.97 1017.90 1017.77 1017.58 1017.33 1017.03 1016.67 1016.25 1015.80 1015.31 1014.81 1014.30 1013.81 1013.34 1012.91 1012.54 1012.21 1011.93 1011.71 1011.53 1011.39 1011.29 1011.20 1011.13 1011.08 1011.03 1010.99 1010.97 1010.97 1010.99 1011.05
1016.64 1016.85 1017.05 1017.25 1017.43 1017.60 1017.75 1017.88 1017.99 1018.07 1018.13 1018.16 1018.15 1018.10 1018.01 1017.87 1017.68 1017.43 1017.13 1016.78 1016.38 1015.95 1015.49 1015.01 1014.53 1014.05 1013.60 1013.17 1012.78 1012.42 1012.10 1011.82 1011.56 1011.33 1011.12 1010.93 1010.75 1010.58 1010.43 1010.30 1010.20 1010.12 1010.09 1010.10
1016.95 1017.15 1017.35 1017.54 1017.72 1017.87 1018.01 1018.12 1018.20 1018.26 1018.29 1018.28 1018.24 1018.16 1018.04 1017.88 1017.67 1017.42 1017.13 1016.79 1016.42 1016.02 1015.60 1015.16 1014.73 1014.29 1013.87 1013.46 1013.07 1012.71 1012.35 1012.02 1011.70 1011.39 1011.09 1010.80 1010.52 1010.25 1010.00 1009.78 1009.60 1009.46 1009.38 1009.35
1017.08 1017.29 1017.50 1017.71 1017.90 1018.06 1018.20 1018.30 1018.38 1018.41 1018.41 1018.38 1018.30 1018.19 1018.04 1017.85 1017.63 1017.37 1017.08 1016.76 1016.42 1016.06 1015.68 1015.30 1014.91 1014.52 1014.13 1013.75 1013.37 1012.99 1012.62 1012.25 1011.88 1011.50 1011.13 1010.75 1010.39 1010.04 1009.71 1009.42 1009.18 1008.98 1008.85 1008.79
1017.06 1017.30 1017.54 1017.77 1017.99 1018.18 1018.34 1018.45 1018.53 1018.56 1018.54 1018.48 1018.38 1018.24 1018.06 1017.85 1017.61 1017.35 1017.07 1016.76 1016.44 1016.11 1015.77 1015.43 1015.07 1014.72 1014.36 1013.99 1013.62 1013.23 1012.84 1012.43 1012.02 1011.59 1011.16 1010.72 1010.30 1009.89 1009.51 1009.17 1008.88 1008.64 1008.48 1008.38
Thickness
5484 5490 5490 5492 5493 5493 5494 5496 5496 5507 5511 5528 5531 5532 5533 5532 5531 5530 5529 5529 5528 5526 5524 5523 5523 5524 5525 5525 5526 5527 5527 5528 5528 5528 5529 5531 5532 5533 5534 5535 5535 5536 5536 5536
5487 5491 5490 5491 5494 5494 5497 5499 5502 5508 5517 5527 5526 5525 5525 5526 5527 5527 5527 5527 5524 5522 5518 5517 5517 5517 5517 5517 5517 5517 5517 5517 5518 5518 5518 5519 5520 5520 5521 5522 5522 5522 5523 5523
5477 5485 5491 5488 5497 5497 5498 5501 5504 5509 5522 5524 5522 5523 5524 5524 5524 5526 5526 5524 5522 5519 5517 5514 5513 5512 5510 5509 5509 5508 5508 5508 5508 5508 5508 5508 5509 5509 5509 5509 5509 5509 5509 5510
5472 5479 5480 5496 5504 5502 5502 5506 5506 5513 5518 5521 5523 5524 5524 5524 5523 5522 5523 5521 5519 5515 5512 5509 5507 5505 5504 5502 5501 5500 5500 5499 5499 5499 5498 5498 5497 5497 5497 5497 5497 5497 5497 5497
5467 5469 5477 5494 5501 5499 5498 5504 5508 5509 5514 5517 5516 5517 5517 5519 5520 5520 5519 5517 5514 5510 5507 5504 5501 5499 5497 5495 5494 5493 5492 5492 5491 5490 5489 5488 5487 5487 5486 5486 5486 5485 5485 5485
5465 5471 5473 5492 5501 5501 5502 5501 5508 5507 5509 5510 5511 5508 5512 5514 5513 5512 5510 5508 5505 5502 5499 5497 5495 5493 5491 5489 5487 5487 5486 5485 5484 5483 5482 5481 5480 5478 5477 5477 5476 5475 5474 5474
5463 5466 5472 5487 5493 5498 5493 5497 5503 5504 5505 5504 5503 5505 5504 5504 5503 5501 5500 5499 5497 5495 5493 5491 5489 5487 5485 5483 5483 5482 5481 5479 5478 5477 5475 5474 5472 5471 5469 5468 5466 5465 5464 5463
5459 5464 5470 5486 5487 5487 5489 5493 5496 5498 5499 5499 5496 5496 5495 5494 5493 5492 5490 5489 5488 5487 5485 5484 5483 5482 5480 5479 5478 5476 5475 5473 5471 5470 5469 5467 5465 5463 5461 5459 5458 5456 5455 5454
5458 5467 5473 5475 5478 5481 5483 5486 5489 5490 5491 5491 5490 5488 5488 5486 5485 5484 5483 5482 5481 5480 5479 5477 5477 5477 5475 5475 5473 5471 5469 5467 5465 5463 5462 5460 5458 5455 5453 5451 5450 5449 5448 5447
5452 5462 5466 5469 5471 5473 5475 5477 5479 5481 5482 5483 5483 5482 5480 5478 5477 5476 5476 5475 5474 5473 5472 5472 5471 5471 5471 5470 5468 5466 5463 5461 5459 5457 5455 5453 5451 5450 5448 5446 5444 5443 5442 5441
5449 5456 5460 5466 5466 5466 5467 5468 5469 5471 5473 5474 5475 5473 5472 5471 5470 5469 5469 5469 5468 5468 5468 5468 5467 5467 5466 5465 5463 5460 5458 5456 5453 5451 5449 5447 5445 5444 5443 5442 5441 5440 5438 5436
5444 5449 5451 5456 5458 5459 5460 5461 5461 5462 5464 5464 5464 5465 5464 5463 5463 5463 5462 5462 5462 5462 5462 5462 5462 5462 5461 5460 5458 5456 5453 5451 5448 5446 5443 5441 5439 5438 5438 5437 5437 5436 5434 5432
5436 5441 5443 5446 5449 5451 5452 5453 5453 5454 5454 5454 5455 5455 5455 5455 5455 5455 5456 5456 5456 5457 5457 5457 5457 5457 5457 5455 5454 5452 5450 5447 5444 5442 5439 5436 5435 5433 5432 5431 5431 5431 5430 5428
5430 5432 5437 5441 5441 5442 5443 5444 5444 5444 5444 5445 5445 5446 5446 5447 5448 5448 5449 5450 5451 5451 5451 5451 5452 5452 5452 5451 5449 5447 5445 5443 5441 5438 5435 5433 5431 5429 5428 5426 5424 5423 5423 5423
5423 5425 5428 5430 5431 5432 5433 5434 5435 5434 5435 5435 5435 5436 5437 5438 5439 5441 5442 5443 5444 5445 5445 5446 5446 5446 5446 5446 5444 5442 5440 5438 5436 5433 5430 5428 5426 5424 5422 5421 5419 5417 5415 5414
5416 5418 5420 5422 5423 5423 5424 5426 5426 5426 5426 5427 5427 5427 5428 5430 5431 5433 5434 5435 5436 5437 5438 5439 5440 5440 5440 5440 5439 5437 5436 5435 5432 5428 5426 5423 5421 5419 5418 5416 5414 5412 5410 5409
5411 5414 5414 5415 5415 5415 5415 5416 5417 5417 5418 5418 5419 5419 5420 5422 5423 5424 5426 5427 5428 5430 5431 5431 5432 5433 5433 5433 5432 5431 5430 5429 5427 5424 5422 5420 5418 5416 5414 5412 5410 5408 5407 5405
5405 5407 5408 5409 5409 5408 5407 5407 5408 5408 5409 5410 5410 5411 5412 5413 5414 5416 5417 5419 5420 5421 5422 5423 5424 5425 5426 5426 5425 5425 5424 5423 5421 5420 5418 5416 5414 5412 5410 5408 5406 5404 5402 5400
5398 5400 5401 5401 5401 5400 5399 5399 5399 5400 5400 5401 5402 5403 5404 5405 5406 5407 5409 5410 5412 5413 5414 5415 5417 5417 5417 5418 5418 5418 5417 5416 5415 5414 5412 5412 5410 5407 5405 5403 5401 5400 5397 5395
5390 5391 5392 5392 5392 5391 5391 5390 5391 5391 5392 5393 5394 5395 5396 5397 5398 5399 5401 5402 5403 5404 5405 5407 5409 5409 5410 5410 5411 5410 5410 5409 5409 5408 5406 5405 5404 5403 5401 5399 5397 5395 5392 5390
5382 5382 5383 5383 5383 5383 5383 5382 5383 5383 5384 5385 5386 5387 5388 5389 5390 5391 5393 5395 5396 5396 5398 5400 5400 5401 5402 5403 5404 5403 5403 5403 5402 5402 5401 5399 5398 5397 5395 5393 5392 5390 5387 5385
5373 5374 5374 5374 5375 5375 5374 5374 5375 5376 5377 5378 5379 5380 5381 5382 5383 5384 5385 5386 5387 5389 5391 5392 5393 5395 5396 5397 5397 5396 5396 5396 5396 5395 5394 5392 5391 5390 5388 5387 5385 5383 5381 5378
5365 5366 5366 5367 5367 5367 5367 5367 5368 5369 5369 5371 5372 5372 5373 5373 5374 5376 5378 5378 5379 5382 5384 5385 5387 5389 5391 5390 5390 5389 5389 5389 5389 5388 5387 5386 5384 5383 5381 5380 5378 5376 5374 5371
5358 5359 5359 5359 5359 5360 5361 5361 5361 5362 5363 5364 5365 5365 5366 5366 5367 5368 5368 5371 5373 5376 5377 5378 5381 5382 5383 5382 5382 5382 5382 5381 5381 5380 5379 5378 5377 5375 5374 5372 5371 5369 5366 5364
5351 5352 5351 5351 5353 5354 5355 5354 5355 5356 5356 5357 5358 5359 5359 5359 5359 5360 5361 5363 5366 5368 5369 5371 5373 5375 5374 5374 5374 5374 5374 5373 5373 5373 5372 5370 5369 5368 5366 5364 5363 5361 5359 5356
5344 5344 5345 5346 5346 5347 5348 5348 5348 5349 5350 5351 5351 5352 5352 5352 5352 5353 5354 5355 5357 5360 5361 5362 5364 5365 5365 5365 5366 5366 5366 5365 5365 5364 5363 5362 5361 5359 5358 5356 5354 5352 5350 5348
5337 5337 5337 5339 5340 5340 5340 5341 5342 5342 5343 5343 5343 5344 5344 5344 5345 5345 5346 5348 5349 5351 5352 5354 5355 5355 5356 5357 5357 5357 5357 5357 5356 5355 5354 5353 5352 5351 5349 5347 5345 5343 5341 5339